Regional Weather Roundup
Issued by NWS

Home | Current Version | Previous Version | Graphics & Text | Print | Product List | Glossary On
Versions: 1 2 3 4 5 6 7 8 9 10 11 12 13 14 15 16 17 18 19 20 21 22 23 24 25 26 27 28 29 30 31 32 33 34 35 36 37 38 39 40 41 42 43 44 45 46 47 48 49 50
000
ASUS45 KSLC 040210
RWRUT

UTAH REGIONAL WEATHER ROUNDUP
NATIONAL WEATHER SERVICE SALT LAKE CITY UT
800 PM MDT FRI JUL 03 2015

UTZ001>011-023>025-040300-

NORTHERN UTAH

CITY           SKY/WX    TMP DP  RH WIND       PRES   REMARKS
BRIGHAM CITY   PTSUNNY   92  46  20 SE3       29.90S
HILL AFB       CLEAR     93  41  16 CALM      29.96S
LOGAN          SUNNY     89  56  32 SW5       29.91S
OGDEN          PTCLDY    95  38  13 CALM      29.91F HX  90
PROVO AIRPORT  PTCLDY    91  52  25 NW7       29.92S
SALT LAKE CITY MOCLDY    97  41  14 N8        29.89S HX  92
VERNAL         PTCLDY    86  46  24 W3        29.95S
WENDOVER       PTSUNNY   95  43  16 SE6       29.90S HX  91
HEBER CITY     PTCLDY    86  46  25 CALM      30.01S
WEST JORDAN    CLEAR     93  43  17 NW5       29.94S

$$

UTZ012>022-026-027-040300-

SOUTHERN/CENTRAL UTAH

CITY           SKY/WX    TMP DP  RH WIND       PRES   REMARKS
BLANDING       MOCLDY    84  44  24 CALM      30.13S
BRYCE CANYON   PTCLDY    75  46  35 W8        30.21S
CEDAR CITY     MOCLDY    83  45  26 SW7       30.06S
DELTA          MOCLDY    92  37  14 W13       29.93S
HANKSVILLE     CLEAR     97  37  12 SE5       29.88S HX  92
MILFORD        MOCLDY    90  40  17 N3        29.97S
MOAB/CYNLANDS  CLEAR     97  38  13 CALM      29.86R HX  92
PRICE          PTCLDY    91  30  11 NW15G22   30.01R
ST GEORGE      PTCLDY    93  54  26 S8        29.83F HX  91
KANAB          MOCLDY    84  54  34 W5        30.06F

$$

REGIONAL REPORTS     COLORADO/ARIZONA

CITY           SKY/WX    TMP DP  RH WIND       PRES   REMARKS
CRAIG, CO      PTCLDY    86  41  20 NE3       30.03S
GRAND JUNCTION PTCLDY    88  50  27 S23G32    29.93R
RIFLE          PTCLDY    86  48  26 SE9       29.98S
MONTROSE       CLOUDY    81  45  28 S5        30.10R THUNDER
CORTEZ         CLEAR     74  50  42 NE10      30.11R
PAGE, AZ       PTCLDY    92  46  20 W5        29.91S
GRAND CANYON   CLOUDY    73  51  46 N8        30.16F
KINGMAN        MOCLDY    93  46  19 SW17      29.90R
FLAGSTAFF      CLOUDY    69  54  58 SW8G20    30.20R

$$

REGIONAL REPORTS    NEVADA/IDAHO/WYOMING

CITY           SKY/WX    TMP DP  RH WIND       PRES   REMARKS
LAS VEGAS, NV  MOSUNNY  107  38   9 W15       29.69S HX 101
ELY            MOSUNNY   84  46  26 SE10      30.09S
ELKO           PTSUNNY   92  42  17 W9        29.99R
POCATELLO, ID  SUNNY     90  50  25 SW14      29.89S
BURLEY         CLOUDY    86  49  27 W10       29.88S
EVANSTON, WY   PTCLDY    81  38  21 W13       30.15S
ROCK SPRINGS   PTCLDY    83  34  17 NW14G22   30.08S
KEMMERER       MOCLDY   N/A N/A N/A NW7       30.17S

$$


USA.gov is the U.S. government's official web portal to all federal, state and local government web resources and services.